Overview Statistics Trail Chart Weather Telemetry Raw packets
 

This is the latest recevied weather packets stored in our database for station/object K0QED. If no packets are shown the sender has not sent any weather packets the latest 10 day(s).

<< 89 90 91 92 93 94 95 >>
Time Temp. Humidity Pressure Rain* Wind** Luminosity Snow
1787965397 18.89° C 62% 1028.2 hPa 0 mm - 7 W/m² -
1787965097 18.89° C 63% 1027.9 hPa 0 mm - 6 W/m² -
1787964791 18.89° C 62% 1028 hPa 0 mm - 3 W/m² -
1787964486 19.44° C 60% 1028 hPa 0 mm - 4 W/m² -
1787964182 19.44° C 61% 1028 hPa 0 mm - 6 W/m² -
1787963881 19.44° C 58% 1027.9 hPa 0 mm - 7 W/m² -
1787963575 19.44° C 56% 1027.9 hPa 0 mm - 9 W/m² -
1787963271 19.44° C 56% 1028.2 hPa 0 mm - 13 W/m² -
1787962970 19.44° C 57% 1027.6 hPa 0 mm - 18 W/m² -
1787962669 19.44° C 59% 1028 hPa 0 mm - 36 W/m² -
1787962364 18.89° C 59% 1027.7 hPa 0 mm - 52 W/m² -
1787962058 18.89° C 60% 1027.7 hPa 0 mm - 53 W/m² -
1787961752 18.89° C 62% 1027.9 hPa 0 mm - 45 W/m² -
1787961452 18.33° C 64% 1028.2 hPa 0 mm - 47 W/m² -
1787961151 18.89° C 64% 1028.4 hPa 0 mm - 57 W/m² -
1787960851 18.89° C 63% 1029.1 hPa 0 mm - 58 W/m² -
1787960546 18.89° C 61% 1029.2 hPa 0 mm - 32 W/m² -
1787960245 18.33° C 63% 1028.5 hPa 0 mm - 22 W/m² -
1787959944 18.33° C 64% 1028.1 hPa 0 mm - 22 W/m² -
1787959645 18.33° C 63% 1027.9 hPa 0 mm - 26 W/m² -
1787959345 17.78° C 66% 1028 hPa 0 mm - 26 W/m² -
1787959040 17.22° C 68% 1028.1 hPa 0 mm - 38 W/m² -
1787958735 17.22° C 71% 1027.9 hPa 0 mm - 47 W/m² -
1787958430 16.67° C 69% 1027.6 hPa 1.27 mm - 58 W/m² -
1787958126 15.56° C 80% 1027.6 hPa 1.27 mm - 83 W/m² -

* Rain latest hour (hover to see other rain measurements)
** Current wind speed in m/s (hover to see current wind gust speed)